Location: Vassar Physics Lab
(41.6843°N, 73.8954°W)
Time: 14:50:09
(UTC-04:00)

CZ-4B DEB - Visible Passes

Search period start: 29 July 2014 00:00
Search period end: 08 August 2014 00:00
Orbit: 843 x 865 km, 98.8° (Epoch: 28 July)

Date Brightness Start Highest point End Pass type
(mag) Time Alt. Az. Time Alt. Az. Time Alt. Az.
29 Jul 4.4 04:26:12 10° NNE 04:31:41 75° ESE 04:37:08 10° S visible
30 Jul 4.7 04:15:22 10° NNE 04:20:47 60° ESE 04:26:10 10° S visible
31 Jul 5.0 04:04:35 10° NNE 04:09:52 48° E 04:15:07 10° S visible
01 Aug 5.4 03:53:51 10° NNE 03:58:56 38° E 04:03:59 10° SSE visible
02 Aug 5.7 03:43:11 10° NE 03:47:59 31° E 03:52:46 10° SSE visible
03 Aug 6.1 03:32:35 10° NE 03:37:01 25° E 03:41:25 10° SSE visible
03 Aug 4.7 05:12:47 10° N 05:17:56 44° WNW 05:23:03 10° SW visible
04 Aug 6.3 03:22:06 10° NE 03:26:02 20° E 03:29:57 10° SE visible
04 Aug 4.4 05:01:47 10° N 05:07:06 54° WNW 05:12:24 10° SSW visible
05 Aug 6.6 03:11:47 10° NE 03:15:02 16° E 03:18:15 10° SE visible
05 Aug 4.2 04:50:50 10° N 04:56:16 68° WNW 05:01:40 10° SSW visible
06 Aug 6.7 03:01:49 10° ENE 03:04:00 12° E 03:06:11 10° ESE visible
06 Aug 4.2 04:39:55 10° NNE 04:45:24 83° WNW 04:50:51 10° SSW visible
07 Aug 4.3 04:29:02 10° NNE 04:34:31 80° ESE 04:39:59 10° S visible
